カタログに戻る

STARLINK-3113

運用中通信VLEO
NORAD 49735·PAYLOAD·🇺🇸 United States

打ち上げ Dec 2, 2021 から Cape Canaveral Space Force Station

Loading…

次のパス (今後24時間)

TLE

最新Source: CelesTrak SupGP

元期: Sep 14, 2026, 20:33 UTC

1 49735C 21115M   26257.85673611  .00016858  00000+0  49828-3 0  2575
2 49735  53.1596  15.8175 0001254  81.8409 119.6370 15.34368982    15

AllMySatでSTARLINK-3113をリアルタイム追跡

Download on the App Store